Content
SEND FEEDBACK

Daily
Averages
Monthly
Summary
United States of America

MAURICEVILLE, TEXAS


Home > North America > United States > Texas
Elevation: 20 feet     Latitude: 30 14N     Longitude: 093 44W

WEATHER
 
SELECT A DAY
Number of Records: 108,109;   Date Range: 8/25/05 - 7/27/14
 
SHARE

PRINT THIS DATA

[ ← Previous Day ]
WEATHER ALMANAC - SEPTEMBER 18, 2013
[ Next Day → ]
[ °C ]   °F
Weather ElementAverageHighLow
Temperature81.9 °F91.2 °F (1:35 pm)74.1 °F (6:35 am)
Dewpoint73.8 °F76.1 °F (9:35 pm)70.7 °F (6:35 pm)
Humidity78.2 %97 % (3:35 am)55 % (3:55 pm)
Barometer29.99 in30.03 in (9:35 am)29.94 in (4:15 pm)
Wind Speed5.3 mph11.5 mph (1:15 pm)
Wind Gust17.3 mph (10:55 am)
Weather ElementAverage
Visibility8.8 mi
Wind DirectionENE (82 °)

Weather ElementTotal
Precipitation---
Cooling Degree Days17.7 (Base 65)
Growing Degree Days32.7 (Base 50)
Averaged from 71 records on September 18, 2013
WEATHER CONDITIONS BREAKOUT
WIND DIRECTION BREAKOUT
WEATHER BY HOUR - SEPTEMBER 18, 2013
[ °C ]   °F
Local TimeTemperatureDewpointHumidityBarometerVisibilityWind DirectionWind SpeedGust SpeedPrecipitationEventsConditions
12:35 AM76.1 °F74.3 °F94 %30.01 in10.0 miCalmClear
12:55 AM76.1 °F74.5 °F95 %30.01 in10.0 miCalmClear
1:15 AM75.4 °F73.9 °F95 %30.01 in7.0 miCalmClear
1:35 AM74.8 °F73.6 °F96 %30.00 in7.0 miCalmClear
1:55 AM74.7 °F73.4 °F96 %30.00 in4.0 miCalmClear
2:15 AM74.7 °F73.6 °F96 %30.00 in5.0 miCalmClear
2:35 AM75.2 °F73.9 °F96 %30.00 in5.0 miNNW (340°)3.5 mphClear
2:55 AM75.0 °F73.8 °F96 %30.00 in5.0 miCalmClear
3:15 AM75.2 °F74.1 °F96 %29.99 in7.0 miCalmClear
3:35 AM75.2 °F74.3 °F97 %30.00 in5.0 miCalmClear
3:55 AM75.4 °F74.3 °F96 %29.99 in7.0 miCalmClear
4:15 AM75.2 °F74.3 °F97 %29.99 in5.0 miCalmClear
4:35 AM75.2 °F73.9 °F96 %29.98 in7.0 miCalmClear
4:55 AM75.2 °F73.9 °F96 %29.98 in5.0 miCalmClear
5:15 AM74.7 °F73.6 °F96 %29.99 in7.0 miCalmClear
5:35 AM74.5 °F73.4 °F96 %29.99 in7.0 miNNW (330°)3.5 mphMostly Cloudy
5:55 AM74.3 °F73.0 °F96 %29.99 in7.0 miCalmScattered Clouds
6:15 AM74.3 °F72.9 °F95 %29.99 in7.0 miCalmClear
6:35 AM74.1 °F72.7 °F95 %30.00 in7.0 miNorth (350°)3.5 mphClear
6:55 AM74.3 °F73.0 °F96 %29.99 in7.0 miNorth (360°)3.5 mphClear
7:15 AM74.5 °F72.9 °F95 %30.00 in7.0 miCalmClear
7:35 AM74.8 °F73.0 °F94 %30.01 in7.0 miCalmClear
7:55 AM75.2 °F73.4 °F94 %30.01 in7.0 miCalmScattered Clouds
8:15 AM76.1 °F73.8 °F92 %30.01 in7.0 miNNE (30°)5.8 mphScattered Clouds
8:35 AM77.7 °F74.3 °F89 %30.01 in7.0 miNNE (30°)6.9 mphClear
8:55 AM78.8 °F74.5 °F87 %30.01 in10.0 miNNE (30°)6.9 mphClear
9:15 AM80.1 °F74.8 °F84 %30.02 in10.0 miNE (50°)5.8 mphClear
9:35 AM81.0 °F75.4 °F83 %30.03 in10.0 miNE (50°)5.8 mphClear
9:55 AM82.4 °F75.6 °F80 %30.03 in10.0 miNE (50°)6.9 mphClear
10:15 AM83.3 °F75.7 °F78 %30.03 in10.0 miENE (60°)6.9 mphClear
10:35 AM85.1 °F75.9 °F74 %30.03 in10.0 miNE (50°)6.9 mphClear
10:55 AM86.4 °F74.1 °F67 %30.03 in10.0 miENE (70°)9.2 mph17.3 mphScattered Clouds
11:15 AM86.0 °F73.8 °F67 %30.03 in10.0 miENE (60°)9.2 mphScattered Clouds
11:35 AM87.6 °F73.4 °F63 %30.03 in10.0 miENE (70°)9.2 mph16.1 mphScattered Clouds
11:55 AM87.4 °F74.7 °F66 %30.03 in10.0 miEast (90°)8.1 mphScattered Clouds
12:15 PM88.0 °F73.6 °F62 %30.02 in10.0 miEast (90°)8.1 mphMostly Cloudy
12:35 PM89.2 °F74.5 °F62 %30.02 in10.0 miEast (80°)8.1 mphMostly Cloudy
12:55 PM89.8 °F74.1 °F60 %30.01 in10.0 miEast (80°)9.2 mphMostly Cloudy
1:15 PM90.0 °F73.6 °F58 %30.00 in10.0 miEast (90°)11.5 mphScattered Clouds
1:35 PM91.2 °F73.6 °F56 %29.98 in10.0 miEast (80°)9.2 mphScattered Clouds
1:55 PM88.5 °F72.7 °F59 %29.98 in10.0 miEast (100°)10.4 mphMostly Cloudy
2:15 PM89.6 °F71.8 °F56 %29.98 in10.0 miEast (80°)9.2 mphScattered Clouds
2:35 PM89.6 °F72.9 °F58 %29.97 in10.0 miESE (110°)8.1 mph17.3 mphScattered Clouds
2:55 PM89.1 °F72.5 °F58 %29.96 in10.0 miESE (120°)9.2 mphScattered Clouds
3:15 PM88.9 °F71.4 °F56 %29.95 in10.0 miEast (100°)6.9 mphScattered Clouds
3:35 PM88.3 °F72.9 °F60 %29.95 in10.0 miSE (130°)5.8 mphScattered Clouds
3:55 PM90.1 °F72.1 °F55 %29.95 in7.0 miESE (110°)10.4 mph16.1 mphMostly Cloudy
4:15 PM89.1 °F72.9 °F59 %29.94 in10.0 miENE (60°)9.2 mphMostly Cloudy
4:35 PM88.7 °F73.2 °F60 %29.95 in10.0 miESE (110°)9.2 mphMostly Cloudy
4:55 PM89.2 °F72.3 °F57 %29.94 in10.0 miESE (110°)8.1 mphScattered Clouds
5:15 PM88.7 °F73.4 °F60 %29.94 in10.0 miESE (110°)9.2 mphClear
5:35 PM88.7 °F72.5 °F59 %29.94 in10.0 miESE (110°)6.9 mphClear
5:55 PM89.4 °F72.0 °F56 %29.94 in10.0 miESE (120°)9.2 mphClear
6:15 PM87.8 °F71.6 °F58 %29.94 in10.0 miSE (130°)9.2 mphClear
6:35 PM85.8 °F70.7 °F60 %29.94 in10.0 miSE (130°)5.8 mphClear
6:55 PM85.1 °F71.6 °F64 %29.94 in10.0 miSE (130°)5.8 mphClear
7:15 PM84.2 °F72.5 °F68 %29.94 in10.0 miSE (130°)4.6 mphClear
7:35 PM83.5 °F73.4 °F72 %29.94 in10.0 miSE (130°)5.8 mphClear
7:55 PM83.3 °F74.1 °F74 %29.95 in10.0 miSE (130°)5.8 mphClear
8:15 PM82.8 °F74.8 °F77 %29.95 in10.0 miESE (120°)4.6 mphClear
8:35 PM82.4 °F75.2 °F79 %29.95 in10.0 miESE (120°)4.6 mphClear
8:55 PM81.9 °F75.6 °F81 %29.96 in10.0 miESE (120°)5.8 mphClear
9:15 PM82.0 °F75.9 °F82 %29.96 in10.0 miESE (110°)6.9 mphClear
9:35 PM82.0 °F76.1 °F82 %29.97 in10.0 miESE (110°)6.9 mphClear
9:55 PM82.4 °F75.9 °F81 %29.98 in10.0 miESE (110°)8.1 mphClear
10:15 PM81.9 °F75.7 °F82 %29.98 in10.0 miEast (100°)5.8 mphClear
10:35 PM82.2 °F75.7 °F81 %29.98 in10.0 miEast (100°)8.1 mphScattered Clouds
10:55 PM81.7 °F75.7 °F82 %29.98 in10.0 miEast (100°)6.9 mphClear
11:15 PM81.7 °F75.7 °F82 %29.98 in10.0 miEast (90°)8.1 mphClear
11:35 PM81.0 °F75.6 °F84 %29.99 in10.0 miEast (80°)5.8 mphClear
11:55 PM80.4 °F75.2 °F84 %29.98 in10.0 miENE (70°)6.9 mphScattered Clouds
Hourly data recorded from KORG, located miles away from Mauriceville, Texas







STORIES FROM OUR PARTNERS